,

(GMT )
St.-Anicet

Weather History for CWBZ - October, 2012

Change the Weather History Date:

Wednesday, October 3, 2012

  Actual Average Record
Temperature  
Mean Temperature 60 °F -  
Max Temperature 70 °F - - ()
Min Temperature 49 °F - - ()
Degree Days  
Heating Degree Days 6    
Growing Degree Days 10 (Base 50)    
Moisture  
Dew Point 57 °F    
Average Humidity 88    
Maximum Humidity 99    
Minimum Humidity 64    
Precipitation  
Precipitation 0.00 in - - ()
Sea Level Pressure  
Sea Level Pressure 30.06 in    
Wind  
Wind Speed 4 mph ()    
Max Wind Speed 10 mph    
Max Gust Speed -    
T = Trace of Precipitation, MM = Missing Value Source: Averaged Metar Reports

Daily Weather History Graph

Daily Weather History Graph

Search for Another Location

Airport or City:

Trip Planner

Search our weather history database for the weather conditions in past years. The results will help you decide how hot, cold, wet, or windy it might be!

Date:

Astronomy

Oct. 03, 2012 Rise Set
Actual Time 6:58 AM EDT 6:32 PM EDT
Civil Twilight 6:28 AM EDT 7:02 PM EDT
Nautical Twilight 5:54 AM EDT 7:36 PM EDT
Astronomical Twilight 5:20 AM EDT 8:10 PM EDT
Moon 8:12 PM EDT (10/3) 10:30 AM EDT (10/3)
Length of Visible Light 12h 33m
Length of Day
11h 34m
Waning Gibbous, 89% of the Moon is Illuminated
Oct 3
Waning Gibbous
Oct 8
Last Quarter
Oct 15
New
Oct 21
First Quarter
Oct 29
Full

Hourly Weather History & Observations

Time (EDT) Temp. Dew Point Humidity Pressure Visibility Wind Dir Wind Speed Gust Speed Precip Events Conditions
12:00 AM 50.0 °F 49.6 °F 99% 30.04 in - Calm Calm - N/A   Unknown
1:00 AM 50.9 °F 50.5 °F 99% 30.03 in - NE 1.2 mph - N/A   Unknown
2:00 AM 53 °F 52 °F 96% 30.03 in - NNE 1.2 mph - -  
2:00 AM 52.5 °F 52.2 °F 99% 30.03 in - NNE 1.2 mph - N/A   Unknown
3:00 AM 53.6 °F 53.2 °F 99% 30.03 in - East 1.2 mph - N/A   Unknown
4:00 AM 54.1 °F 53.8 °F 99% 30.03 in - East 2.3 mph - N/A   Unknown
5:00 AM 54.5 °F 54.3 °F 99% 30.03 in - ENE 4.6 mph - N/A   Unknown
6:00 AM 53.8 °F 53.6 °F 99% 30.04 in - ENE 4.6 mph - N/A   Unknown
7:00 AM 55.2 °F 55.0 °F 99% 30.06 in - ENE 4.6 mph - N/A   Unknown
8:00 AM 57 °F 57 °F 99% 30.07 in - ENE 5.8 mph - -  
8:00 AM 57.0 °F 56.8 °F 99% 30.07 in - ENE 5.8 mph - N/A   Unknown
9:00 AM 57.4 °F 57.2 °F 99% 30.08 in - East 6.9 mph - N/A   Unknown
10:00 AM 59.9 °F 56.7 °F 89% 30.08 in - ENE 8.1 mph - N/A   Unknown
11:00 AM 61.7 °F 57.4 °F 86% 30.08 in - NE 8.1 mph - N/A   Unknown
12:00 PM 63.1 °F 57.4 °F 81% 30.07 in - ENE 10.4 mph - N/A   Unknown
1:00 PM 66.2 °F 58.3 °F 76% 30.06 in - ENE 9.2 mph - N/A   Unknown
2:00 PM 69 °F 59 °F 64% 30.04 in - ENE 6.9 mph - -  
2:00 PM 68.5 °F 59.4 °F 72% 30.04 in - ENE 6.9 mph - N/A   Unknown
3:00 PM 69.4 °F 59.4 °F 70% 30.04 in - ENE 6.9 mph - N/A   Unknown
4:00 PM 69.3 °F 59.5 °F 71% 30.05 in - NE 9.2 mph - N/A   Unknown
5:00 PM 66.6 °F 59.4 °F 78% 30.06 in - NNE 5.8 mph - N/A   Unknown
6:00 PM 65.5 °F 58.8 °F 79% 30.07 in - NE 4.6 mph - N/A   Unknown
7:00 PM 64.8 °F 58.5 °F 80% 30.08 in - NE 4.6 mph - N/A   Unknown
8:00 PM 64 °F 59 °F 79% 30.08 in - ENE 4.6 mph - -  
8:00 PM 64.4 °F 59.0 °F 83% 30.08 in - ENE 4.6 mph - N/A   Unknown
9:00 PM 64.2 °F 60.3 °F 87% 30.09 in - ENE 3.5 mph - N/A   Unknown
10:00 PM 64.2 °F 61.2 °F 90% 30.09 in - ENE 3.5 mph - N/A   Unknown